Location: Sandbach
(53.1410°N, 2.3660°W)
Time: 18:08:11
(UTC+01:00)

X-37B - Visible Passes

Search period start: 13 June 2021 00:00
Search period end: 23 June 2021 00:00
Orbit: 386 x 389 km, 45.0° (Epoch: 10 June)

Date Brightness Start Highest point End Pass type
(mag) Time Alt. Az. Time Alt. Az. Time Alt. Az.
13 Jun 3.1 03:25:30 10° SSE 03:25:36 10° SSE 03:25:44 10° SSE visible
15 Jun 2.7 03:04:19 12° S 03:05:13 13° SSE 03:06:51 10° SE visible
16 Jun 2.3 03:40:42 10° SW 03:42:59 18° S 03:45:17 10° SE visible
17 Jun 2.3 02:44:24 16° S 02:44:51 16° SSE 02:46:56 10° SE visible
18 Jun 3.1 01:48:20 10° SE 01:48:20 10° SE 01:48:24 10° SE visible
18 Jun 2.1 03:20:36 11° SW 03:22:39 19° S 03:25:00 10° SE visible
19 Jun 2.2 02:24:37 18° S 02:24:37 18° S 02:26:48 10° SE visible
20 Jun 2.1 03:01:04 15° SW 03:02:20 18° S 03:04:37 10° SE visible
21 Jun 2.5 02:05:32 15° SSE 02:05:32 15° SSE 02:06:33 10° SE visible
21 Jun 2.5 03:38:31 10° SW 03:40:06 13° SSW 03:41:42 10° SSE visible
22 Jun 2.5 02:43:03 14° SSE 02:43:03 14° SSE 02:44:03 10° SSE visible
